Theta_e
327 327 330 334 333 330 344 345 348 349 346 342 340 344 339 340 342 345 346 344 345 344 343 349 346 346 349 347 343 337 343 345
327 328 327 329 329 337 341 349 350 352 345 347 344 344 343 340 342 345 345 344 344 346 346 346 347 346 350 347 345 340 334 340
327 327 326 325 324 325 332 339 347 347 351 344 344 345 345 344 341 343 346 345 345 345 346 346 344 348 350 349 347 341 335 340
324 327 326 325 326 324 323 325 336 341 342 343 341 345 344 344 345 343 345 345 343 346 348 346 344 345 348 351 347 342 342 346
326 328 329 329 327 325 322 321 323 330 343 342 344 340 337 342 346 345 344 345 342 340 346 348 345 343 349 348 345 345 345 348
326 330 329 331 329 329 328 321 324 324 345 341 340 342 343 346 347 346 345 342 344 346 347 348 346 345 350 348 344 345 345 349
324 327 328 329 329 329 330 337 331 334 340 344 344 345 343 351 348 347 347 345 348 348 348 346 345 349 348 346 342 346 344 347
328 328 330 329 331 331 336 337 338 338 348 343 344 346 344 347 352 349 349 351 351 350 348 347 345 343 339 347 348 345 343 345
328 329 329 333 331 331 333 335 336 347 342 335 336 337 336 344 346 347 350 351 350 351 349 347 346 345 339 347 347 347 346 345
328 328 330 332 328 329 333 334 338 339 343 334 332 332 333 341 349 348 348 347 349 349 347 349 347 348 345 346 347 345 344 343
331 332 330 331 329 329 329 336 333 340 339 338 341 343 344 347 345 344 344 344 345 348 350 349 348 347 345 344 344 344 344 343
326 330 332 330 328 327 327 338 333 337 333 333 335 339 341 341 343 342 340 341 341 344 348 347 349 348 348 346 346 345 344 343
326 331 332 330 327 327 331 335 331 336 335 334 333 340 337 339 339 338 336 337 336 340 341 347 348 347 348 346 345 345 343 341
328 329 332 327 328 329 329 329 331 334 336 336 339 338 335 335 333 332 334 335 334 336 338 339 341 343 343 343 342 341 341 341
327 326 328 327 328 327 326 327 329 336 332 328 332 335 335 334 334 333 333 332 332 333 335 335 335 336 337 337 337 337 338 339
327 327 327 327 326 326 327 327 329 333 335 333 331 333 332 331 328 330 329 328 328 328 330 331 331 331 333 332 331 333 333 334
324 326 327 326 325 324 325 326 327 332 334 333 333 332 330 330 326 323 322 321 319 319 319 319 318 320 322 323 323 321 321 322
329 329 328 327 325 323 324 324 325 330 330 331 331 329 327 326 325 323 321 320 319 316 314 314 313 313 314 314 313 313 314 314
328 326 328 327 325 324 322 323 325 330 327 325 329 328 327 326 324 323 321 320 318 316 313 311 312 312 315 316 317 316 316 318
Wind_Speed
9 8 8 4 6 8 7 2 3 1 2 11 14 13 27 31 30 35 33 35 26 31 29 31 36 27 28 24 20 18 20 18
11 6 8 3 5 2 3 5 3 5 7 5 9 7 15 27 30 30 21 30 33 34 30 37 33 32 28 28 22 18 20 18
6 5 6 3 4 4 4 5 4 4 4 12 18 16 10 17 31 35 29 31 36 39 32 38 32 33 31 33 24 20 20 17
9 6 9 7 5 6 3 8 2 4 4 12 17 17 23 18 28 35 38 39 37 30 39 37 38 32 30 36 24 18 21 17
9 8 7 4 6 4 4 2 6 2 5 10 15 11 25 21 30 33 37 38 44 36 32 35 39 37 36 34 26 22 20 20
2 2 4 6 9 11 6 2 5 6 5 10 6 7 6 16 29 38 41 38 34 38 40 36 29 22 41 32 21 25 25 25
9 2 3 8 8 9 11 17 4 2 9 10 6 6 4 9 21 28 36 40 33 38 42 42 31 30 27 27 29 30 28 25
8 11 11 10 14 13 15 22 17 7 8 5 5 17 21 19 18 11 19 29 32 34 36 42 46 34 22 26 22 36 26 24
4 8 8 7 15 17 12 16 6 8 6 3 4 7 9 19 28 18 13 18 26 30 27 30 44 39 30 26 29 27 25 26
1 6 1 3 14 15 16 13 12 13 13 7 9 9 11 16 20 19 10 9 18 24 24 25 25 24 26 29 26 24 22 19
3 3 4 1 7 11 6 7 13 7 5 11 8 20 23 12 11 11 4 4 9 14 24 27 24 27 27 25 23 19 14 13
4 1 4 1 7 9 7 3 13 9 2 6 8 4 2 9 8 4 1 2 3 7 12 21 22 19 21 21 18 14 13 12
5 2 2 2 7 6 5 4 5 5 5 7 4 4 13 9 8 2 3 2 9 11 12 19 19 18 18 13 15 18 16 15
2 4 2 6 4 4 4 6 5 9 9 9 10 11 9 5 5 5 5 4 4 8 11 14 16 16 15 15 17 15 16 14
5 5 8 13 6 6 13 15 16 11 14 8 12 9 6 1 3 3 3 6 7 9 11 10 10 11 13 16 14 12 11 12
5 2 7 8 12 10 8 8 12 16 8 11 7 6 5 4 5 9 11 12 11 13 14 14 12 11 12 14 14 14 16 16
3 14 17 13 12 8 6 5 9 11 12 11 8 8 6 10 13 15 15 14 12 13 15 16 15 13 13 13 13 14 14 14
2 9 12 11 9 3 3 4 3 7 10 8 5 12 17 18 15 15 15 14 12 12 12 13 13 13 13 12 10 10 10 9
8 10 13 10 6 3 2 1 6 6 5 5 8 4 11 16 18 17 17 16 15 14 13 13 13 13 13 13 13 13 13 10
Wind_Direction
194 211 156 209 220 215 99 71 96 124 344 300 20 175 198 207 215 208 202 195 196 204 193 191 189 193 201 202 198 194 204 207
202 157 285 182 272 56 37 142 201 133 146 264 304 202 186 200 210 209 198 202 188 185 192 199 202 196 199 200 203 196 201 200
126 130 213 284 293 302 146 138 144 162 178 206 222 190 191 215 214 204 199 196 197 197 203 210 208 195 195 198 198 192 200 196
290 261 192 216 226 210 131 289 155 133 239 185 199 202 180 225 216 209 199 205 198 183 196 205 195 198 202 195 195 191 193 191
336 359 5 11 332 316 288 272 276 171 251 171 194 228 196 209 202 199 200 204 203 202 208 211 207 190 196 192 183 181 193 199
248 321 300 310 335 340 4 306 256 247 170 178 201 246 282 266 206 187 196 190 202 209 199 190 189 216 194 179 189 189 193 199
309 253 304 313 325 309 20 2 311 273 151 129 149 151 101 52 205 184 183 191 191 189 196 193 210 190 183 199 207 202 205 205
306 7 3 358 15 23 38 19 353 27 66 41 229 113 68 53 37 171 165 166 177 178 181 192 181 199 217 192 205 206 227 204
306 28 353 60 15 21 57 39 13 12 340 7 59 49 98 92 79 15 127 150 156 158 165 193 201 220 202 193 201 201 205 204
235 36 224 234 24 31 62 34 42 51 18 45 34 61 50 29 106 151 220 133 147 172 179 194 184 196 195 199 195 199 215 220
105 93 317 127 28 18 14 2 10 43 57 25 64 69 38 66 70 100 128 128 102 163 174 179 181 189 194 201 199 199 198 217
341 144 197 339 12 351 308 28 15 88 250 335 73 69 73 94 102 109 54 70 161 138 176 187 177 188 189 185 189 201 207 199
316 97 91 347 300 311 123 176 331 122 194 305 357 36 136 143 140 127 45 132 155 161 171 170 187 200 196 213 195 188 193 184
15 37 339 277 339 79 245 288 44 101 126 104 118 129 137 110 67 66 75 122 157 172 160 162 165 174 180 186 191 188 189 194
150 210 218 195 169 74 38 31 21 81 136 124 137 158 167 164 6 13 82 141 152 162 154 151 156 165 168 165 176 185 194 195
126 175 316 171 120 94 66 40 29 57 98 125 136 184 133 113 162 163 156 152 146 134 134 133 139 146 163 158 161 170 172 176
25 171 190 101 100 79 84 79 42 72 78 141 158 167 159 143 140 135 129 131 134 139 135 131 130 130 133 140 145 142 139 140
152 125 120 129 131 126 76 68 51 122 112 136 144 155 161 159 161 157 148 148 146 149 142 136 138 140 139 138 141 137 139 138
101 103 121 144 136 171 304 257 65 151 141 103 168 167 187 177 173 167 164 170 164 153 142 138 146 154 154 149 144 140 142 152